Regional Weather Roundup
Issued by NWS

Home | Current Version | Previous Version | Text Only | Print | Product List | Glossary On
Versions: 1 2 3 4 5 6 7 8 9 10 11 12 13 14 15 16 17 18 19 20 21 22 23 24 25 26 27 28 29
000
ASUS42 KKEY 251010
RWRKEY

FLORIDA REGIONAL WEATHER ROUNDUP FOR THE FLORIDA KEYS
NATIONAL WEATHER SERVICE KEY WEST FLORIDA
600 AM EDT SAT OCT 25 2014

...SOUTH FLORIDA AND THE KEYS...

CITY           SKY/WX    TMP DP  RH WIND       PRES   REMARKS
FORT MYERS     CLEAR     64  58  80 N9        29.93R
SW REGIONAL AP CLEAR     63  57  81 N10       29.93R
NAPLES         CLEAR     66  58  75 N7        29.91R
MIAMI          PTCLDY    70  62  76 NW6       29.87R
WEST KENDALL   CLEAR     71  62  73 N12       29.87R
HOMESTEAD      CLEAR     69  63  82 NW10      29.86R
MARATHON       CLEAR     73  67  81 N13G24    29.86R
BOCA CHICA NAS CLEAR     76  67  73 N14       29.87S
KEY WEST INTL  CLEAR     75  69  81 N13       29.88R

...INTERNATIONAL WEATHER...

CITY           SKY/WX    TMP DP  RH WIND       PRES   REMARKS
NASSAU BAHAMAS MOCLDY    79  72  78 NE12      29.79R
CANCUN MEXICO  PTCLDY    70  66  88 N2        29.91R
COZUMEL MEXICO CLOUDY    72  68  88 N12       29.91R

ADJACENT COASTAL WATERS...

STATION/POSITION TIME  SKY/WX   TEMP    WIND        PRES    WAVE
                                AIR SEA DIR/SP/G            HT/PER
                 (UTC)          (F)     (DEG/KT/KT) (MB)    (FT/S)
PULASKI SHOAL LI 0900            78      30/ 19/ 22 1011.7R
SAND KEY         0940            76      20/ 21/ 23 1011.5R
SOMBRERO KEY     1000            74      10/ 22/ 23 1011.2R
LONG KEY         0856            72 76  360/ 21/ 23 1011.5R
MOLASSES REEF    1000            72 80  360/ 19/ 21 1010.3R
FOWEY ROCKS      NOT AVBL
Buoy 42080       NOT AVBL

$$



USA.gov is the U.S. government's official web portal to all federal, state and local government web resources and services.